DLH16PY EDDF-EDDM

Flight info

Callsign DLH16PY
Flight time N/A
Altitude 23000
Route CINDY8S/18 CINDY Z74 HAREM T104 ROKIL ROKIL1B
Aircraft A320/M-SDE3FGHIRWY/LB1

Departure

Time 2026-05-05 18:55
Airport Frankfurt Main Airport (EDDF)

Arrival

Time N/A
Airport Munich Airport (EDDM)
Time Latitude Longitude Altitude Speed Heading
2026-05-05 18:15 50.04431 8.56329 361 ft 0 kts 167°
2026-05-05 18:39 50.04432 8.56329 356 ft 0 kts 167°
2026-05-05 18:39 50.04442 8.56325 364 ft 2 kts 167°
2026-05-05 18:40 50.04453 8.56321 363 ft 2 kts 156°
2026-05-05 18:40 50.04463 8.56314 360 ft 2 kts 152°
2026-05-05 18:40 50.04473 8.56306 362 ft 2 kts 153°
2026-05-05 18:40 50.04483 8.56297 362 ft 2 kts 162°
2026-05-05 18:41 50.04494 8.56297 363 ft 2 kts 248°
2026-05-05 18:41 50.04495 8.56300 363 ft 0 kts 255°
2026-05-05 18:42 50.04492 8.56284 362 ft 5 kts 252°
2026-05-05 18:42 50.04477 8.56217 360 ft 2 kts 249°
2026-05-05 18:43 50.04473 8.56201 358 ft 0 kts 248°
2026-05-05 18:44 50.04471 8.56194 357 ft 3 kts 248°
2026-05-05 18:44 50.04454 8.56124 360 ft 9 kts 250°
2026-05-05 18:44 50.04421 8.56038 356 ft 8 kts 214°
2026-05-05 18:44 50.04363 8.56044 360 ft 10 kts 161°
2026-05-05 18:45 50.04292 8.56071 355 ft 12 kts 188°
2026-05-05 18:45 50.04246 8.55966 357 ft 13 kts 250°
2026-05-05 18:45 50.04211 8.55818 357 ft 17 kts 249°
2026-05-05 18:45 50.04163 8.55619 354 ft 22 kts 249°
2026-05-05 18:46 50.04105 8.55374 357 ft 26 kts 249°
2026-05-05 18:46 50.04038 8.55101 360 ft 28 kts 250°
2026-05-05 18:46 50.03966 8.54794 357 ft 32 kts 249°
2026-05-05 18:46 50.03889 8.54467 354 ft 25 kts 250°
2026-05-05 18:47 50.03821 8.54280 345 ft 21 kts 233°
2026-05-05 18:47 50.03758 8.54048 347 ft 25 kts 250°
2026-05-05 18:47 50.03696 8.53784 343 ft 26 kts 249°
2026-05-05 18:47 50.03627 8.53513 340 ft 27 kts 249°
2026-05-05 18:48 50.03560 8.53232 338 ft 28 kts 250°
2026-05-05 18:48 50.03494 8.52952 337 ft 26 kts 251°
2026-05-05 18:48 50.03472 8.52866 334 ft 0 kts 249°
2026-05-05 18:50 50.03466 8.52842 337 ft 9 kts 247°
2026-05-05 18:50 50.03450 8.52789 336 ft 0 kts 246°
2026-05-05 18:51 50.03442 8.52762 334 ft 0 kts 246°
2026-05-05 18:53 50.03438 8.52747 333 ft 7 kts 246°
2026-05-05 18:53 50.03406 8.52627 333 ft 9 kts 249°
2026-05-05 18:53 50.03385 8.52594 334 ft 7 kts 200°
2026-05-05 18:53 50.03342 8.52593 335 ft 0 kts 180°
2026-05-05 18:54 50.03339 8.52593 336 ft 9 kts 180°
2026-05-05 18:54 50.02988 8.52595 335 ft 86 kts 179°
2026-05-05 18:55 50.02184 8.52601 335 ft 143 kts 179°
2026-05-05 18:55 50.01072 8.52616 647 ft 161 kts 180°
2026-05-05 18:55 49.99962 8.52633 1341 ft 159 kts 181°
2026-05-05 18:55 49.98854 8.52641 2025 ft 160 kts 182°
2026-05-05 18:56 49.97671 8.52717 2455 ft 182 kts 171°
2026-05-05 18:56 49.96461 8.53622 2778 ft 209 kts 141°
2026-05-05 18:56 49.95557 8.55562 3143 ft 234 kts 121°
2026-05-05 18:56 49.94758 8.57797 3921 ft 238 kts 121°
2026-05-05 18:57 49.94123 8.60168 4746 ft 246 kts 105°
2026-05-05 18:57 49.93937 8.62945 5174 ft 271 kts 95°
2026-05-05 18:57 49.93803 8.65926 5897 ft 281 kts 101°
2026-05-05 18:57 49.93212 8.68809 6731 ft 282 kts 120°
2026-05-05 18:58 49.92061 8.71258 7576 ft 282 kts 139°
2026-05-05 18:58 49.90507 8.73124 8447 ft 283 kts 148°
2026-05-05 18:58 49.88944 8.75027 9315 ft 290 kts 138°
2026-05-05 18:58 49.87679 8.77515 10092 ft 301 kts 124°
2026-05-05 18:59 49.86592 8.80444 10363 ft 325 kts 122°
2026-05-05 18:59 49.85459 8.83586 10737 ft 339 kts 121°
2026-05-05 18:59 49.84314 8.86788 11324 ft 341 kts 121°
2026-05-05 18:59 49.83097 8.89949 12122 ft 343 kts 129°
2026-05-05 19:00 49.81643 8.92900 12901 ft 346 kts 130°
2026-05-05 19:00 49.80163 8.95857 13660 ft 349 kts 130°
2026-05-05 19:00 49.78662 8.98843 14337 ft 353 kts 130°
2026-05-05 19:00 49.77147 9.01845 15019 ft 355 kts 130°
2026-05-05 19:01 49.75615 9.04872 15703 ft 358 kts 130°
2026-05-05 19:01 49.74069 9.07921 16350 ft 362 kts 130°
2026-05-05 19:01 49.72514 9.10994 17015 ft 365 kts 130°
2026-05-05 19:01 49.70945 9.14101 17699 ft 368 kts 130°
2026-05-05 19:02 49.69327 9.17300 18346 ft 370 kts 130°